map of FMO home
FMO - Airport
Location
City:  Münster/Osnabrück, North Rhine-Westphalia, Germany
Near (Alt.):Greven
Name:Münster/Osnabrück International Airport
ICAO:EDDG
IATA:FMO

Details
Type:Airport (Flugplatz, Airfield)
Use:Public/Civil, International (customs port of entry)
Latitude:52°08'05"N (52.134642)
Longitude:7°41'05"E (7.684831)
Datum:WGS 1984
Elevation:160 ft (49 m)
Variation:2.41°E (WMM2015v2 magnetic declination)
0.18° annual change
Runways:1
Longest:7119 × 148 ft (2170 × 45 m), paved

Time
Time Zone:UTC+1 (DST+2)
Local Time:

Weather
METAR:EDDG 041350Z 19010KT 150V220 CAVOK 04/M02 Q1024 NOSIG
TAF:EDDG 041100Z 0412/0512 18011KT CAVOK
BECMG 0503/0506 22006KT PROB30
TEMPO 0503/0506 4000 -RA BR BKN010

Related Locations
Nearby:
Farthest:CHT: 11825 mi / 19030 km
Waitangi [Tuuta], CIT, NZ

Find:

   beyond  
but within

Other Information
Maps:
NOTAMs:
Links:
Sources:

  
  • flag of Germany
  • flag of North Rhine-Westphalia
  • flag of Münster/Osnabrück
  

Sectional Chart

Flight Planning
at skyvector.com

Satellite Image

Google Maps Satellite view

 

Copyright © 2004-2019 Karl L. Swartz. All rights reserved.
The Great Circle Mapper name and logo are trademarks of the Great Circle Mapper.
All other trademarks mentioned herein belong to their respective owners.
Please see credits for attibutions and further copyright information.

  Follow gcmap on Facebook Follow gcmap on Twitter GCmap on LinkedIn

hCard Microformat

Geo Microformat